Weather History for KY50 - August, 2013

Change the Weather History Date:

Saturday, August 31, 2013

  Actual Average (KPCZ) Record (KPCZ)
Temperature  
Mean Temperature 69 °F -  
Max Temperature 81 °F 77 °F 92 °F (1960)
Min Temperature 59 °F 55 °F 39 °F (1967)
Cooling Degree Days 4    
Growing Degree Days 19 (Base 50)    
Moisture  
Dew Point 64 °F    
Average Humidity 80    
Maximum Humidity 100    
Minimum Humidity 56    
Precipitation  
Precipitation 0.00 in - - ()
Sea Level Pressure  
Sea Level Pressure 29.87 in    
Wind  
Wind Speed 4 mph (ENE)    
Max Wind Speed 8 mph    
Max Gust Speed -    
Visibility 10 miles    
Events      
Averages and records for this station are not official NWS values.
T = Trace of Precipitation, MM = Missing Value Source: NWS Daily Summary

Daily Weather History Graph

Daily Weather History Graph

Search for Another Location

Airport or City:

Trip Planner

Search our weather history database for the weather conditions in past years. The results will help you decide how hot, cold, wet, or windy it might be!

Date:

Astronomy

Aug. 31, 2013 Rise Set
Actual Time 6:19 AM CDT 7:34 PM CDT
Civil Twilight 5:49 AM CDT 8:04 PM CDT
Nautical Twilight 5:13 AM CDT 8:39 PM CDT
Astronomical Twilight 4:35 AM CDT 9:17 PM CDT
Moon 1:42 AM CDT (8/31) 4:38 PM CDT (8/31)
Length of Visible Light 14h 14m
Length of Day
13h 14m
Waning Crescent, 21% of the Moon is Illuminated
Aug 31
Waning Crescent
Sep 5
New
Sep 12
First Quarter
Sep 19
Full
Sep 26
Last Quarter

Hourly Weather History & Observations

Time (CDT) Temp. Dew Point Humidity Pressure Visibility Wind Dir Wind Speed Gust Speed Precip Events Conditions
12:56 AM 64.9 °F 64.9 °F 100% 29.89 in 10.0 mi NE 4.6 mph - N/A   Clear
1:56 AM 61.9 °F 61.9 °F 100% 29.88 in 10.0 mi NE 3.5 mph - N/A   Clear
2:56 AM 61.9 °F 61.9 °F 100% 29.87 in 10.0 mi NNE 5.8 mph - N/A   Clear
3:56 AM 59.0 °F - N/A% 29.90 in 10.0 mi Calm Calm - N/A   Clear
4:33 AM 60.8 °F - N/A% 29.92 in 10.0 mi Calm Calm - N/A   Mostly Cloudy
4:56 AM 59.9 °F - N/A% 29.88 in 10.0 mi NNE 3.5 mph - N/A   Mostly Cloudy
5:56 AM 61.0 °F - N/A% 29.88 in 10.0 mi NNE 8.1 mph - N/A   Overcast
6:56 AM 62.6 °F - N/A% 29.90 in 10.0 mi NE 5.8 mph - N/A   Overcast
7:08 AM 62.6 °F - N/A% 29.89 in 10.0 mi NNE 5.8 mph - N/A   Overcast
7:56 AM 63.0 °F - N/A% 29.89 in 10.0 mi NNE 3.5 mph - N/A   Overcast
8:37 AM 66.2 °F 66.2 °F 100% 29.91 in 10.0 mi Variable 3.5 mph - N/A   Mostly Cloudy
8:56 AM 68.0 °F 66.9 °F 96% 29.89 in 10.0 mi Variable 3.5 mph - N/A   Mostly Cloudy
9:05 AM 68.0 °F 66.2 °F 94% 29.91 in 10.0 mi ESE 4.6 mph - N/A   Mostly Cloudy
9:56 AM 71.6 °F 64.4 °F 78% 29.91 in 10.0 mi Variable 3.5 mph - N/A   Scattered Clouds
10:07 AM 71.6 °F 64.4 °F 78% 29.91 in 10.0 mi Calm Calm - N/A   Mostly Cloudy
10:56 AM 72.0 °F 63.9 °F 76% 29.88 in 10.0 mi Variable 3.5 mph - N/A   Overcast
11:56 AM 73.9 °F 63.9 °F 71% 29.88 in 10.0 mi Variable 6.9 mph - N/A   Mostly Cloudy
12:56 PM 75.9 °F 61.9 °F 62% 29.86 in 10.0 mi Variable 3.5 mph - N/A   Scattered Clouds
1:56 PM 79.0 °F 61.9 °F 56% 29.85 in 10.0 mi Variable 6.9 mph - N/A   Clear
2:56 PM 79.9 °F 63.0 °F 56% 29.84 in 10.0 mi ESE 5.8 mph - N/A   Clear
3:56 PM 79.9 °F 63.9 °F 58% 29.83 in 10.0 mi East 6.9 mph - N/A   Clear
4:56 PM 79.0 °F 63.9 °F 60% 29.82 in 10.0 mi ESE 6.9 mph - N/A   Clear
5:56 PM 77.9 °F 63.9 °F 62% 29.81 in 10.0 mi ESE 4.6 mph - N/A   Clear
6:56 PM 75.9 °F 63.9 °F 66% 29.79 in 10.0 mi SE 5.8 mph - N/A   Clear
7:56 PM 70.0 °F 64.9 °F 84% 29.83 in 10.0 mi Calm Calm - N/A   Clear
8:56 PM 65.8 °F 65.8 °F 100% 29.85 in 10.0 mi Calm Calm - N/A   Clear
9:56 PM 63.9 °F 63.9 °F 100% 29.85 in 10.0 mi Calm Calm - N/A   Clear
10:56 PM 63.0 °F - N/A% 29.84 in 10.0 mi Calm Calm - N/A   Clear
11:56 PM 61.9 °F - N/A% 29.82 in 10.0 mi NW 4.6 mph - N/A   Clear